Portada
METAR-TAF:

METAR-TAF

Aeroports :

Lake Argyle, Austràlia

latitud: 16-38-13S, longitud: 128-27-05E, altitud: 159 m

Observació

L'informe es va fer fa 1 hora i 5 minuts, a les 07:00 UTC
Vent 6 kt del Nord/Nord-Est, variant entre Nord/Nord-Est i Est
Temperatura 36°C
Humitat 27%
Pressió 1010 hPa
Visibilitat 10 km o més

METAR: YARG 280700Z AUTO 03006KT 020V090 9999 // NCD 36/14 Q1010

Hora: 16:05 (08:05 UTC)


TAF: manca

Observacions i pronòstics meteorològics de més de 4000 aeroports (METAR i TAF).

Les estacions disponibles són els punts grocs i vermells al mapa.

Posi el ratolí al punt desitjat per veure el nom de l'estació.

Feu clic per veure les observacions i els pronòstics meteorològics.

Per canviar el mapa: feu clic els botons verds amb una creu de color negre per apropar; al botó verd amb un guió per allunyar la imatge; o en les fletxes verdes per a mapes adjacents.


METAR-TAF: